パンスターズ彗星

C/2017 Y2 ( PanSTARRS )

English version
Home page
Updated on August 26, 2018

---------------------------------------------------------------------

・ プロフィール

発見日 2017年12月24日
発見光度 22.1等
発見者 Pan-STARRS 1 telescope (Haleakala)

・ 軌道要素

Epoch 2021 Apr. 16.0 TT = JDT 2459320.5
T 2021 Apr. 25.07304 TT                                 MPCW
q   5.1757467            (2000.0)            P               Q
n   0.01558038     Peri.  146.28925     -0.10987025     -0.69522384
a  15.8763476      Node    61.49436     -0.99220479     +0.03443175
e   0.6739964      Incl.  126.06577     +0.05880632     -0.71796816
P  63.26
From 11 observations 2017 Dec. 24-2018 Jan. 12, mean residual 0".2.

・ 光度変化

        m1 = 8.0 + 5 logΔ + 10.0 log r

---------------------------------------------------------------------

軌道要素はM.P.E.C. 2018-D91に掲載されたものです。
光度グラフはComet for Windowsで作成したものです。

---------------------------------------------------------------------

Copyright(C) Seiichi Yoshida (comet@aerith.net). All rights reserved.